Location: Svitavy
(49.7500°N, 16.4667°E)
Time: 22:34:14
(UTC+01:00)

ISS - Pass Details

Date: 25 January 2020
Orbit: 415 x 423 km, 51.6° (Epoch: 25 February)

Event Time Altitude Azimuth Distance (km) Brightness Sun altitude
Rises 19:09:44 0° 261° (W) 2,376 1.4 -24.5°
Reaches altitude 10° 19:11:50 10° 264° (W) 1,511 0.1 -24.8°
Enters shadow 19:13:55 34° 273° (W) 718 -2.1 -25.2°
